Location: Bruch
(44.2051°N, 0.4120°E)
Time: 04:40:47
(UTC+00:00)

Cosmos 923 Rocket - Pass Details

Date: 29 November 2020
Orbit: 757 x 786 km, 74.0° (Epoch: 24 January)

Event Time Altitude Azimuth Distance (km) Brightness Sun altitude
Exits shadow 05:34:12 27° 305° (NW) 1,479 4.9 -17.0°
Maximum altitude 05:36:25 39° 258° (WSW) 1,154 4.5 -16.6°
Drops below altitude 10° 05:41:19 10° 190° (S) 2,329 6.6 -15.8°
Sets 05:43:49 0° 183° (S) 3,256 7.4 -15.3°
